Starlink 33774

operational
NORAD ID: 63721 Int'l Des: 2025-087 Owner: SPXS Country: US Constellation: starlink
LEOCIRCULAR

About Starlink 33774

Description loading...

Live Position

Loading 3D Globe...

Upcoming Passes

Altitude History

Altitude vs Time

uPlot chart will show altitude changes over time

Two-Line Element Set

1 63721U 25087AA 26061.54767453 .00024549 00000-0 83765-3 0 9993
2 63721 53.1557 252.9032 0001152 81.0610 279.0521 15.30222690 48104
Epoch: Mar 2, 2026 • Age: 46 hours

Current Status

Altitude 476.4 km
Velocity 7.63 km/s
Sub-Earth Point 31.85°N, 138.77°E
Launch Date Apr 28, 2025
Age 0.8 years
Type internet

Technical Details

Classification Payload
Mass 575.00 kg
Dry Mass 530.00 kg
Total Mass 575.00 kg
Length 0.30 m
Diameter 4.10 m
Span 29.00 m
Shape Box + pan
Manufacturer SPXS
Bus Type Starlink V2MO
Phase Status In Orbit
Owner/State SPXS/US

Large Constellations

Loading constellations...